Overview Statistics Trail Chart Weather Telemetry Raw packets
 

This is the latest recevied weather packets stored in our database for station/object EA1IDU-12. If no packets are shown the sender has not sent any weather packets the latest 10 day(s).

<< 1 2 3 4 5 >>
Time Temp. Humidity Pressure Rain* Wind** Luminosity Snow
1788597604 24.44° C 39% 1031.9 hPa - - - -
1788596704 23.89° C 39% 1031.9 hPa - - - -
1788595804 22.22° C 40% 1031.9 hPa - - - -
1788594904 21.11° C 40% 1031.9 hPa - - - -
1788594003 21.11° C 40% 1032 hPa - - - -
1788593103 22.22° C 40% 1031.8 hPa - - - -
1788592203 22.78° C 39% 1031.9 hPa - - - -
1788591303 21.11° C 39% 1031.9 hPa - - - -
1788590403 18.89° C 40% 1031.8 hPa - - - -
1788589503 17.78° C 41% 1031.8 hPa - - - -
1788588602 16.11° C 41% 1031.8 hPa - - - -
1788587702 16.11° C 41% 1031.7 hPa - - - -
1788586802 16.67° C 40% 1031.7 hPa - - - -
1788585902 17.22° C 40% 1031.8 hPa - - - -
1788585001 17.22° C 39% 1031.7 hPa - - - -
1788584101 17.22° C 39% 1031.8 hPa - - - -
1788583200 17.78° C 39% 1031.7 hPa - - - -
1788582319 18.33° C 38% 1031.9 hPa - - - -
1788581419 18.33° C 37% 1032 hPa - - - -
1788580519 18.89° C 37% 1031.9 hPa - - - -
1788579619 18.89° C 36% 1032.1 hPa - - - -
1788578719 19.44° C 36% 1032.1 hPa - - - -
1788577818 19.44° C 35% 1032.1 hPa - - - -
1788576918 19.44° C 35% 1032 hPa - - - -
1788576018 20° C 35% 1032.2 hPa - - - -

* Rain since midnight (hover to see other rain measurements)
** Current wind speed in m/s (hover to see current wind gust speed)